EW7604 Weather Reports


Display with metric or nautical units.
time (UTC)temp
F
wind
direction
speed
MPH
gust
MPH
rain 1hr
in
rain 24hr
in
rain mn
in
humidity
%
barometer
mb
20260505124530 51 203 0.0 1.0 0.00 0.00 0.00 91 1014.5
20260505123031 51 204 0.0 1.0 0.00 0.00 0.00 91 1014.5
20260505121534 51 203 0.0 0.0 0.00 0.00 0.00 91 1014.5
20260505120028 51 203 0.0 1.0 0.00 0.00 0.00 91 1014.4
20260505114526 51 204 0.0 1.0 0.00 0.00 0.00 91 1014.4
20260505113025 51 203 0.0 2.0 0.00 0.00 0.00 91 1014.3
20260505111524 51 232 0.0 3.0 0.00 0.00 0.00 91 1014.3
20260505101517 51 167 1.0 2.0 0.00 0.00 0.00 92 1013.9
20260505100017 51 167 0.0 3.0 0.00 0.00 0.00 92 1013.8
20260505094511 50 210 0.0 2.0 0.00 0.00 0.00 93 1013.9
20260505093011 50 258 0.0 4.0 0.00 0.00 0.00 93 1013.7
20260505091510 49 254 0.0 3.0 0.00 0.00 0.00 92 1013.7
20260505090017 49 255 0.0 3.0 0.00 0.00 0.00 92 1013.6
20260505084508 49 171 0.0 2.0 0.00 0.00 0.00 92 1013.6
20260505083006 49 170 0.0 1.0 0.00 0.00 0.00 92 1013.6
20260505081506 49 170 0.0 1.0 0.00 0.00 0.00 91 1013.5
20260505080011 50 170 0.0 2.0 0.00 0.00 0.00 91 1013.3
20260505074502 50 169 0.0 4.0 0.00 0.00 0.00 91 1013.3
20260505073105 50 161 0.0 2.0 0.00 0.00 0.00 91 1013.2
20260505071557 50 161 1.0 5.0 0.00 0.00 0.00 90 1013.0
20260505070055 50 147 0.0 3.0 0.00 0.00 0.00 90 1012.8
20260505064555 51 157 1.0 5.0 0.00 0.00 0.00 90 1012.8
20260505063053 51 157 0.0 3.0 0.00 0.00 0.00 89 1012.7
20260505061553 51 159 0.0 2.0 0.00 0.00 0.00 89 1012.7
20260505060051 52 261 0.0 7.0 0.00 0.00 0.00 88 1012.6
20260505054556 52 261 0.0 2.0 0.00 0.00 0.00 88 1012.7
20260505053050 53 259 0.0 2.0 0.00 0.00 0.00 87 1012.6
20260505051550 53 235 0.0 3.0 0.00 0.00 0.00 86 1012.6
20260505041549 55 306 2.0 9.0 0.00 0.00 0.00 84 1011.6
20260505040047 55 271 3.0 12.0 0.00 0.00 0.00 83 1011.3
20260505034547 56 296 4.0 13.0 0.00 0.00 0.00 81 1011.1
20260505033045 57 240 3.0 10.0 0.00 0.00 0.00 79 1011.0
20260505031554 58 225 2.0 9.0 0.00 0.00 0.00 77 1010.8
20260505030046 59 342 5.0 13.0 0.00 0.00 0.00 75 1010.6
20260505024549 61 279 2.0 10.0 0.00 0.00 0.00 73 1010.4
20260505023046 62 338 2.0 6.0 0.00 0.00 0.00 71 1010.3
20260505021541 64 303 3.0 12.0 0.00 0.00 0.00 70 1010.4
20260505020040 65 250 2.0 4.0 0.00 0.00 0.00 68 1010.4
20260505014559 67 241 1.0 8.0 0.00 0.00 0.00 67 1010.4
20260505013038 68 259 0.0 5.0 0.00 0.00 0.00 66 1010.4
20260505011548 70 243 1.0 7.0 0.00 0.00 0.00 65 1010.5
20260505010037 70 185 0.0 6.0 0.00 0.00 0.00 66 1010.6
20260505004536 71 202 1.0 8.0 0.00 0.00 0.00 66 1010.5
20260505003036 71 184 1.0 5.0 0.00 0.00 0.00 66 1010.5
20260505001541 72 259 2.0 6.0 0.00 0.00 0.00 63 1010.5
20260505000033 72 212 1.0 4.0 0.00 0.00 0.00 63 1010.6
20260504234531 71 144 2.0 7.0 0.00 0.00 0.00 66 1010.6
20260504233028 71 129 1.0 5.0 0.00 0.00 0.00 66 1010.8
20260504231527 70 143 2.0 8.0 0.00 0.00 0.00 68 1010.8
20260504230027 70 152 3.0 9.0 0.00 0.00 0.00 67 1011.0
20260504224534 70 184 2.0 7.0 0.00 0.00 0.00 67 1011.0
20260504223024 70 152 2.0 6.0 0.00 0.00 0.00 69 1011.2
20260504221524 69 169 2.0 5.0 0.00 0.00 0.00 69 1011.3
20260504220022 70 131 0.0 7.0 0.00 0.00 0.00 66 1011.5
20260504214525 69 155 3.0 7.0 0.00 0.00 0.00 69 1011.7
20260504213021 68 194 2.0 7.0 0.00 0.00 0.00 72 1011.7
20260504211517 67 167 2.0 9.0 0.00 0.00 0.00 72 1011.9
20260504210027 67 121 2.0 7.0 0.00 0.00 0.00 74 1012.0
20260504204527 67 254 2.0 8.0 0.00 0.00 0.00 71 1012.3
20260504203015 66 186 1.0 6.0 0.00 0.00 0.00 72 1012.4
20260504201513 66 161 1.0 7.0 0.00 0.00 0.00 70 1012.4
20260504200012 65 232 1.0 7.0 0.00 0.00 0.00 74 1012.4
20260504194514 64 157 2.0 6.0 0.00 0.00 0.00 75 1012.5
20260504193010 63 176 1.0 9.0 0.00 0.00 0.00 75 1012.5
20260504191510 63 155 2.0 7.0 0.00 0.00 0.00 74 1012.6
20260504190009 62 159 2.0 7.0 0.00 0.00 0.00 76 1012.7
20260504184509 61 158 2.0 6.0 0.00 0.00 0.00 76 1012.9
20260504183009 61 158 1.0 6.0 0.00 0.00 0.00 77 1012.8
20260504181507 60 146 2.0 8.0 0.00 0.00 0.00 78 1012.8
20260504180006 60 77 1.0 5.0 0.00 0.00 0.00 81 1012.7
20260504174507 58 148 3.0 7.0 0.00 0.00 0.00 82 1012.8
20260504173003 58 142 3.0 7.0 0.00 0.00 0.00 83 1012.7
20260504171502 57 146 2.0 9.0 0.00 0.00 0.00 84 1012.7
20260504160109 55 146 1.0 9.0 0.00 0.00 0.00 86 1012.6